Location: Newark
(34.6283°N, 36.0776°E)
Time: 07:43:21
(UTC+00:00)

Tiros 1 - Pass Details

Date: 23 October 2019
Orbit: 630 x 664 km, 48.4° (Epoch: 20 November)

Event Time Altitude Azimuth Distance (km) Brightness Sun altitude
Exits shadow 01:28:37 16° 8° (N) 1,736 9.5 -29.2°
Drops below altitude 10° 01:31:16 10° 42° (NE) 2,082 10.3 -28.7°
Sets 01:34:32 0° 65° (ENE) 2,994 11.6 -28.0°
